Total_Precipitation_Accumulation
0.22 0.28 0.25 0.32 0.42 0.42 0.28 0.24 0.20 0.25 0.23 0.29 0.37 0.41 0.36 0.29 0.27 0.29 0.30 0.31 0.31 0.31
0.23 0.27 0.26 0.26 0.24 0.26 0.28 0.24 0.22 0.17 0.15 0.18 0.20 0.23 0.25 0.25 0.24 0.28 0.32 0.36 0.41 0.37
0.06 0.07 0.08 0.08 0.08 0.08 0.10 0.10 0.10 0.09 0.09 0.11 0.15 0.21 0.19 0.20 0.19 0.21 0.21 0.22 0.25 0.24
0.05 0.06 0.07 0.06 0.05 0.05 0.06 0.06 0.08 0.07 0.08 0.08 0.09 0.09 0.07 0.09 0.11 0.14 0.17 0.19 0.23 0.25
0.03 0.05 0.07 0.07 0.07 0.05 0.06 0.06 0.06 0.09 0.13 0.16 0.12 0.09 0.09 0.09 0.09 0.10 0.14 0.18 0.23 0.25
0.04 0.05 0.06 0.07 0.09 0.07 0.06 0.07 0.08 0.06 0.07 0.10 0.14 0.17 0.17 0.15 0.12 0.11 0.13 0.14 0.15 0.16
0.07 0.06 0.05 0.05 0.06 0.08 0.08 0.07 0.05 0.06 0.09 0.12 0.13 0.12 0.11 0.13 0.14 0.16 0.16 0.16 0.19 0.24
0.11 0.08 0.04 0.04 0.06 0.06 0.06 0.11 0.12 0.09 0.07 0.06 0.07 0.13 0.16 0.18 0.19 0.20 0.24 0.28 0.34 0.41
0.08 0.09 0.07 0.08 0.09 0.07 0.06 0.09 0.19 0.27 0.20 0.15 0.13 0.25 0.16 0.09 0.09 0.16 0.23 0.31 0.36 0.42
0.17 0.12 0.23 0.18 0.19 0.22 0.22 0.17 0.21 0.28 0.39 0.42 0.49 0.66 0.56 0.53 0.52 0.49 0.44 0.39 0.33 0.31
0.44 0.38 0.48 0.68 0.58 0.61 0.68 0.85 0.92 0.74 0.76 0.88 0.95 0.88 0.71 0.56 0.48 0.49 0.43 0.33 0.23 0.14
0.75 0.70 0.69 0.80 1.03 1.12 0.86 0.83 0.84 0.74 0.76 0.63 0.54 0.44 0.31 0.24 0.21 0.19 0.14 0.07 0.02 0.01
0.99 0.93 1.10 0.86 0.72 0.87 0.78 0.51 0.50 0.56 0.53 0.40 0.30 0.21 0.14 0.09 0.05 0.02 0.00 0.00 0.00 0.01
0.66 0.62 0.65 0.71 0.57 0.50 0.49 0.46 0.41 0.28 0.17 0.10 0.05 0.01 0.01 0.01 0.01 0.00 0.01 0.00 0.00 0.00